Location: Huntsville
(41.2590°N, 111.7678°W)
Time: 05:13:56
(UTC+00:00)

deb Explorer IX - All Passes

Search period start: 25 September 2022 00:00
Search period end: 05 October 2022 00:00
Orbit: 530 x 1066 km, 38.8° (Epoch: 20 September)

Date Brightness Start Highest point End Pass type
(mag) Time Alt. Az. Time Alt. Az. Time Alt. Az.
25 Sep - 15:53:55 10° SSW 15:59:03 30° SSE 16:04:43 10° E daylight
25 Sep - 17:38:53 10° WSW 17:45:11 62° SSE 17:52:07 10° E daylight
25 Sep - 19:25:08 10° W 19:31:54 73° S 19:39:01 10° ESE daylight
25 Sep - 21:11:49 10° W 21:18:32 48° SSW 21:25:15 10° SE daylight
25 Sep - 22:59:42 10° W 23:04:29 19° SW 23:09:10 10° S daylight
26 Sep - 15:23:45 10° SSW 15:28:35 27° SSE 15:33:57 10° E daylight
26 Sep - 17:08:31 10° WSW 17:14:37 60° SSE 17:21:26 10° E daylight
26 Sep - 18:54:39 10° W 19:01:17 73° S 19:08:24 10° E daylight
26 Sep - 20:41:16 10° W 20:47:56 50° SSW 20:54:45 10° SE daylight
26 Sep - 22:28:55 10° W 22:33:58 21° SW 22:38:57 10° S daylight
27 Sep - 14:53:38 10° SSW 14:58:08 25° SE 15:03:09 10° E daylight
27 Sep - 16:38:10 10° WSW 16:44:03 58° SSE 16:50:44 10° E daylight
27 Sep - 18:24:13 10° W 18:30:40 73° S 18:37:44 10° E daylight
27 Sep - 20:10:43 10° W 20:17:19 52° SSW 20:24:11 10° SE daylight
27 Sep - 21:58:11 10° W 22:03:26 23° SW 22:08:40 10° SSE daylight
28 Sep - 14:23:33 10° SSW 14:27:42 22° SE 14:32:19 10° E daylight
28 Sep - 16:07:50 10° WSW 16:13:31 55° SSE 16:20:00 10° E daylight
28 Sep - 17:53:46 10° W 18:00:03 73° S 18:07:03 10° E daylight
28 Sep - 19:40:12 10° W 19:46:42 53° SSW 19:53:36 10° SE daylight
28 Sep - 21:27:29 10° W 21:32:52 24° SW 21:38:18 10° SSE daylight
29 Sep - 13:53:31 10° S 13:57:16 20° SE 14:01:27 10° E daylight
29 Sep - 15:37:32 10° WSW 15:42:59 52° SSE 15:49:16 10° E daylight
29 Sep - 17:23:22 10° W 17:29:28 73° S 17:36:20 10° E daylight
29 Sep - 19:09:42 10° W 19:16:05 55° SSW 19:22:58 10° ESE daylight
29 Sep - 20:56:49 10° W 21:02:18 25° SSW 21:07:54 10° SSE daylight
30 Sep - 13:23:31 10° S 13:26:52 18° SE 13:30:32 10° ESE daylight
30 Sep - 15:07:15 10° SW 15:12:28 49° SSE 15:18:32 10° E daylight
30 Sep - 16:52:58 10° W 16:58:52 72° S 17:05:37 10° E daylight
30 Sep - 18:39:13 10° W 18:45:28 56° SSW 18:52:19 10° ESE daylight
30 Sep - 20:26:12 10° W 20:31:43 27° SSW 20:37:26 10° SSE daylight
01 Oct - 12:53:36 10° S 12:56:28 15° SE 12:59:34 10° ESE visible
01 Oct - 14:36:59 10° SW 14:41:58 46° SSE 14:47:47 10° E daylight
01 Oct - 16:22:36 10° W 16:28:16 71° S 16:34:52 10° E daylight
01 Oct - 18:08:46 10° W 18:14:51 58° SSW 18:21:38 10° ESE daylight
01 Oct - 19:55:36 10° W 20:01:07 28° SSW 20:06:56 10° SSE daylight
02 Oct - 12:23:47 10° S 12:26:05 13° SE 12:28:31 10° ESE visible
02 Oct - 14:06:44 10° SW 14:11:29 43° SSE 14:17:01 10° E daylight
02 Oct - 15:52:14 10° W 15:57:43 70° S 16:04:06 10° E daylight
02 Oct - 17:38:20 10° W 17:44:14 59° SSW 17:50:55 10° ESE daylight
02 Oct - 19:25:02 10° W 19:30:32 29° SSW 19:36:23 10° SSE daylight
03 Oct - 11:54:11 10° SSE 11:55:42 11° SE 11:57:15 10° ESE visible
03 Oct - 13:36:30 10° SW 13:41:01 40° SSE 13:46:17 10° E daylight
03 Oct - 15:21:53 10° WSW 15:27:09 69° S 15:33:21 10° E daylight
03 Oct - 17:07:55 10° W 17:13:38 60° SSW 17:20:11 10° ESE daylight
03 Oct - 18:54:30 10° W 18:59:55 30° SSW 19:05:48 10° SSE daylight
04 Oct - 13:06:16 10° SW 13:10:34 36° SSE 13:15:32 10° E daylight
04 Oct - 14:51:33 10° WSW 14:56:37 68° S 15:02:36 10° E daylight
04 Oct - 16:37:31 10° W 16:43:03 60° SSW 16:49:27 10° ESE daylight
04 Oct - 18:24:00 10° W 18:29:19 31° SSW 18:35:11 10° SSE daylight
